ASIASAT 5

Last updated on Tue Sep 22 2026 00:03:11 GMT+0000 (Coordinated Universal Time)

1 35696U 09042A 26264.65156647 -.00000311 00000+0 00000+0 0 9998 2 35696 0.0172 126.9308 0001648 51.5808 157.0994 1.00270415 62683
UTC large
Height (km)
Speed (km/s)
/
Latitude / Longitude
Inclination (degrees)
Orbital Period (minutes)
Azimuth
Elevation
Range (km)
Doppler Factor

Next 0 passes for location: London (51.5072 / 0.1276)

No passes found over London.
ASIASAT 5